Regional Weather Roundup
Issued by NWS Albany, NY

Current Version | Previous Version | Text Only | Print | Product List | Glossary On
Versions: 1 2 3 4 5 6 7 8 9 10 11 12 13 14 15 16 17 18 19 20 21 22 23 24 25 26 27 28 29 30 31 32 33 34 35 36 37 38 39 40 41 42 43 44 45 46 47 48 49 50
000
ASUS41 KALY 290710
RWRALY

NEW YORK STATE HOURLY WEATHER ROUNDUP
NATIONAL WEATHER SERVICE ALBANY NY
300 AM EDT SUN MAR 29 2020

NOTE: "FAIR" INDICATES FEW OR NO CLOUDS BELOW 12,000 FEET WITH NO
SIGNIFICANT WEATHER AND/OR NO OBSTRUCTIONS TO VISIBILITY.

NYZ032-033-038>043-046>054-057>066-NYZ062>081-082-084-290800-
EAST


CITY           SKY/WX    TMP DP  RH WIND       PRES   REMARKS
ALBANY         DRIZZLE   43  40  89 CALM      30.06F FOG
GLENS FALLS    CLOUDY    41  39  93 N6        30.07F
POUGHKEEPSIE   LGT RAIN  43  41  93 NE5       30.04F FOG
NEWBURGH       LGT RAIN  43  43 100 NE12      30.05S FOG
MONTGOMERY     LGT RAIN  42  41  96 NE8       30.03F
WHITE PLAINS   LGT RAIN  44  42  93 E10G22    30.01S FOG
ISLIP          CLOUDY    46  46 100 E12       30.01S FOG
NEW YORK CITY  LGT RAIN  45  42  89 NE21      30.01F FOG
CENTRAL PARK   LGT RAIN  45  43  93 NE10G23   30.03F FOG
$$

NYZ005>009-017-018-044>046-055-056-290800-
CENTRAL


CITY           SKY/WX    TMP DP  RH WIND       PRES   REMARKS
FULTON         LGT RAIN  44  39  82 E7        29.92F
SYRACUSE       LGT RAIN  43  40  89 NE12      29.93F
ROME           CLOUDY    44  39  82 SE12      30.00F
ELMIRA         CLOUDY    46  43  89 VRB3      29.91S
BINGHAMTON     CLOUDY    39  38  96 SE9       29.92F WCI  33
MONTICELLO     CLOUDY    40  32  73 E10       30.00F WCI  33
$$

NYZ026>034-041>043-087-290800-
NORTH


CITY           SKY/WX    TMP DP  RH WIND       PRES   REMARKS
WATERTOWN      CLOUDY    47  39  74 E6        29.95F
FORT DRUM      NOT AVBL
OGDENSBURG     CLOUDY    43  30  61 VRB5      29.99F
MASSENA        CLOUDY    40  28  62 NE8       30.06S WCI  34
SARANAC LAKE   CLOUDY    38  28  67 CALM      30.00F
PLATTSBURGH    CLOUDY    44  30  57 CALM      30.09S
$$

NYZ001>004-010>016-019>021-085-290800-
WEST


CITY           SKY/WX    TMP DP  RH WIND       PRES   REMARKS
NIAGARA FALLS  CLOUDY    45  43  93 NE8       29.80F
BUFFALO        CLOUDY    49  46  90 CALM      29.80F
DUNKIRK        LGT RAIN  49  46  90 CALM      29.78F
JAMESTOWN      RAIN      54  52  94 S13       29.84R FOG
WELLSVILLE     FOG       44  44 100 SE7       29.85F VSB 1/4
ROCHESTER      CLOUDY    45  42  89 SE14      29.84F
PENN YAN       CLOUDY    45  43  93 SE9       29.88F
$$

             KEY
       WCI = WIND CHILL INDEX
       VSB = VISIBILITY
       HX  = HEAT INDEX
$$



USA.gov is the U.S. government's official web portal to all federal, state and local government web resources and services.